Date,TemperatureHighF,TemperatureAvgF,TemperatureLowF,DewpointHighF,DewpointAvgF,DewpointLowF,HumidityHigh,HumidityAvg,HumidityLow,PressureMaxIn,PressureMinIn,WindSpeedMaxMPH,WindSpeedAvgMPH,GustSpeedMaxMPH,PrecipitationSumIn
2013-3-4,49.0,49.0,48.9,26.3,26.2,26.2,41,41,41,30.00,30.00,1,1,2,0.00
2013-3-5,56.7,48.4,34.1,53.7,45.0,28.0,95,88,78,29.96,29.67,12,5,23,0.71
2013-3-6,40.5,32.6,29.2,30.0,25.5,21.0,90,75,66,30.30,29.94,13,5,20,0.01
2013-3-7,55.9,40.8,29.7,33.3,28.8,25.0,83,64,39,30.39,30.29,5,1,8,0.01
2013-3-8,58.6,42.0,28.5,30.0,24.8,19.0,86,56,23,30.40,30.31,4,1,10,0.00
2013-3-9,61.0,50.3,38.3,33.0,28.7,25.0,65,45,33,30.31,30.16,8,2,14,0.00
2013-3-10,68.7,60.0,52.8,41.0,33.7,29.0,47,38,27,30.15,29.95,20,6,23,0.00
2013-3-11,61.3,52.8,38.6,52.0,47.1,37.0,96,82,48,29.98,29.75,17,5,26,1.17
2013-3-12,56.7,42.8,34.6,36.0,31.8,28.0,90,68,38,30.17,29.92,13,3,13,0.00
2013-3-13,48.3,39.0,30.6,29.0,24.9,19.0,80,59,35,30.37,30.14,9,3,16,0.00
2013-3-14,53.1,36.6,24.0,34.0,19.6,13.0,89,55,21,30.45,30.31,10,2,13,0.01
2013-3-15,72.1,52.4,32.4,44.0,37.4,29.0,95,62,36,30.32,29.98,10,2,22,0.01
2013-3-16,74.8,63.2,53.8,48.0,43.9,41.0,65,51,34,29.98,29.84,11,4,23,0.00
2013-3-17,69.2,61.5,52.8,53.0,47.5,44.0,81,61,44,29.96,29.86,10,3,18,0.00
2013-3-18,62.2,56.8,49.9,58.0,53.1,49.0,97,88,71,29.89,29.75,19,4,26,0.82
2013-3-19,59.9,49.0,35.7,51.0,31.2,20.0,96,56,28,30.15,29.89,11,2,16,0.00
2013-3-20,55.3,44.2,36.0,29.0,20.9,13.0,73,42,24,30.17,29.96,12,2,16,0.00
2013-3-21,43.8,33.7,22.9,28.0,15.5,9.0,74,49,31,30.07,29.98,9,2,15,0.00
2013-3-22,43.7,34.6,31.3,22.0,17.1,14.0,59,49,40,30.10,30.04,6,1,7,0.00
2013-3-25,34.1,32.3,29.7,27.0,25.0,23.0,88,74,66,30.14,29.91,10,4,18,0.00
2013-3-26,36.0,32.0,29.2,29.0,26.2,24.0,91,79,67,30.38,30.13,7,2,13,0.01
2013-3-27,50.5,37.9,26.6,29.0,25.9,24.0,89,65,40,30.43,30.33,6,1,12,0.00
2013-3-28,60.4,43.6,30.5,32.0,27.5,23.0,83,56,32,30.41,30.29,7,1,14,0.00
2013-3-29,59.4,47.7,42.2,38.0,31.2,26.0,75,54,36,30.35,30.22,3,0,6,0.00
2013-3-30,65.4,51.1,40.7,53.0,44.4,38.0,96,80,47,30.24,30.00,5,1,11,0.36
2013-3-31,62.4,55.9,52.6,58.0,53.9,52.0,97,93,74,30.01,29.86,7,2,13,0.47
2013-4-1,65.7,54.1,45.3,54.0,45.9,37.0,98,77,48,30.09,29.90,9,2,17,0.00
2013-4-2,55.1,45.7,36.9,38.0,27.7,22.0,75,51,31,30.24,30.09,6,2,10,0.00
2013-4-3,55.5,47.9,38.6,29.0,23.7,18.0,56,40,28,30.25,30.17,5,2,20,0.00
2013-4-4,48.9,41.9,39.9,41.0,39.4,27.0,97,91,43,30.18,29.99,6,1,10,0.76
2013-4-5,66.0,51.3,41.6,45.0,39.0,33.0,98,69,31,30.13,30.01,10,2,12,0.04
2013-4-6,73.2,59.1,44.0,40.0,36.5,33.0,71,45,29,30.19,30.06,12,2,14,0.00
2013-4-7,74.6,64.6,53.7,46.0,43.6,38.0,67,48,32,30.15,30.02,12,3,22,0.00
2013-4-8,74.9,66.9,58.0,56.0,52.1,47.0,82,60,46,30.09,30.00,20,4,21,0.00
2013-4-9,81.3,70.3,58.9,57.0,54.4,52.0,81,58,42,30.16,30.01,11,3,19,0.00
2013-4-10,84.1,73.4,62.9,60.0,55.9,53.0,75,55,40,30.07,29.84,21,4,21,0.00
2013-4-11,76.8,68.2,59.7,64.0,58.5,55.0,96,72,56,29.87,29.51,17,5,27,1.04
2013-4-12,64.8,55.0,44.9,60.0,45.0,37.0,96,73,37,29.97,29.60,12,3,16,0.16
2013-4-13,73.9,58.2,43.6,43.0,38.4,32.0,87,53,23,30.09,29.97,5,1,10,0.00
2013-4-14,63.5,56.0,53.1,52.0,42.5,34.0,92,64,41,30.04,29.90,9,2,15,0.05
2013-4-15,80.9,65.1,53.9,58.0,55.3,51.0,95,74,41,30.08,29.92,7,2,13,0.00
2013-4-16,79.1,69.1,62.5,67.0,61.2,57.0,94,76,62,30.20,30.08,10,2,17,0.23
2013-4-17,83.6,71.2,62.6,66.0,62.8,59.0,95,76,54,30.18,30.03,9,2,17,0.13
2013-4-18,80.6,71.4,62.2,61.0,58.2,54.0,90,65,42,30.03,29.76,12,4,20,0.00
2013-4-19,71.4,55.2,41.0,63.3,48.5,-99.9,95,83,65,30.11,29.64,22,-4,24,1.35
2013-4-20,63.0,47.3,33.4,38.0,32.8,29.0,96,62,32,30.30,30.12,6,1,8,0.00
2013-4-21,68.3,55.1,42.1,40.0,34.8,28.0,72,48,32,30.37,30.24,6,1,9,0.00
2013-4-22,72.6,59.9,49.0,45.0,41.4,38.0,69,52,34,30.30,30.13,5,1,11,0.00
2013-4-23,76.0,62.3,49.1,50.0,43.4,34.0,68,52,36,30.20,30.02,7,2,14,0.00
2013-4-24,66.5,57.9,44.2,59.0,51.8,41.0,95,81,62,30.22,29.99,13,3,26,0.10
2013-4-25,67.8,51.1,37.4,42.0,36.0,28.0,93,62,23,30.38,30.22,5,1,10,0.00
2013-4-26,75.3,57.4,43.1,50.0,38.2,31.0,95,53,26,30.39,30.24,5,0,10,0.36
2013-4-27,57.4,53.5,50.3,54.0,51.8,49.0,97,94,89,30.37,30.08,5,1,12,0.68
2013-4-28,59.0,57.0,54.8,59.0,55.9,54.0,98,96,86,30.09,29.91,11,1,17,1.55
2013-4-29,70.4,60.9,55.3,60.0,55.4,52.0,98,83,59,30.04,29.93,3,0,7,0.00
2013-4-30,81.1,64.5,51.0,60.0,53.5,50.0,98,71,38,30.06,29.95,5,0,8,0.00
2013-5-1,74.7,66.7,60.9,59.0,57.1,53.0,88,72,56,30.15,30.06,7,1,10,0.00
2013-5-2,74.2,64.0,56.6,60.0,54.9,51.0,86,73,52,30.16,30.08,7,1,13,0.00
2013-5-3,67.4,61.0,58.1,57.4,54.5,53.0,87,79,63,30.09,29.92,11,2,16,0.01
2013-5-4,59.0,51.3,45.1,54.0,50.0,44.0,98,95,82,29.95,29.85,9,1,17,2.06
2013-5-5,59.1,49.2,44.2,56.1,47.6,43.5,98,94,78,29.93,29.76,6,0,16,0.80
2013-5-6,55.5,49.5,45.0,50.5,47.5,44.0,98,93,76,29.92,29.77,6,0,8,0.06
2013-5-7,71.5,56.6,47.1,55.0,50.6,46.0,98,82,51,30.01,29.90,2,0,11,0.00
2013-5-8,74.0,62.1,50.5,61.0,55.4,49.0,98,80,55,30.06,29.98,4,0,10,0.00
2013-5-9,79.8,67.6,55.8,64.0,57.2,54.0,97,72,42,30.12,30.01,7,0,13,0.00
2013-5-10,71.7,66.2,60.5,60.0,57.6,56.0,90,74,61,30.06,29.93,13,2,18,0.00
2013-5-11,73.9,63.8,54.5,65.0,59.8,52.0,97,87,71,29.99,29.89,7,1,12,0.29
2013-5-12,65.8,55.3,46.3,52.0,40.9,32.0,96,62,33,30.16,29.99,5,1,10,0.00
2013-5-13,68.3,53.4,39.1,45.0,38.0,34.0,92,60,29,30.28,30.15,5,0,9,0.00
2013-5-14,81.3,63.9,46.8,56.0,48.1,36.0,84,58,38,30.24,30.08,11,2,17,0.00
2013-5-15,86.2,71.9,58.7,62.0,55.5,52.0,82,59,35,30.14,30.00,7,1,11,0.00
2013-5-16,83.0,72.9,60.3,63.9,58.1,53.0,82,61,44,30.05,29.95,6,1,9,0.00
2013-5-17,76.4,68.6,63.0,67.0,61.8,54.0,95,79,65,30.06,29.99,2,0,10,0.00
2013-5-18,80.3,69.2,63.0,70.0,65.9,62.0,98,90,67,30.04,29.97,5,1,10,0.68
2013-5-19,69.4,66.0,58.5,68.0,65.3,58.0,98,97,94,30.03,29.95,2,0,4,4.37
2013-5-20,80.6,68.6,57.2,73.0,65.3,57.0,100,90,72,30.10,29.99,2,0,5,0.00
2013-5-21,87.4,76.7,64.8,73.0,67.5,64.0,97,76,50,30.00,29.92,4,0,11,0.00
2013-5-22,83.1,72.2,65.2,69.9,65.5,62.4,97,81,53,29.92,29.82,6,1,0,0.02
2013-5-23,81.2,69.2,60.4,67.1,60.9,55.0,99,77,46,30.02,29.88,4,1,0,0.00
2013-5-24,74.0,61.6,54.3,55.5,51.9,-99.9,90,73,38,30.26,0.00,4,-2,7,0.00
2013-5-25,78.7,62.7,49.0,52.0,46.0,34.0,85,58,20,30.34,30.19,2,0,6,0.00
2013-5-26,82.0,67.0,51.6,59.0,51.7,46.0,87,61,38,30.25,30.15,5,0,6,0.00
2013-5-27,86.9,71.7,58.1,63.0,57.5,52.0,87,63,32,30.19,30.07,6,1,14,0.00
2013-5-28,86.7,74.8,64.3,63.0,58.9,56.0,79,60,39,30.14,30.05,8,1,13,0.00
2013-5-29,86.7,75.3,67.4,68.0,61.4,55.0,79,63,43,30.16,30.06,8,0,10,0.00
2013-5-30,82.6,74.3,68.2,69.0,65.1,61.0,85,73,60,30.17,30.06,6,1,11,0.00
2013-5-31,85.6,74.7,67.6,69.0,65.4,63.0,87,73,54,30.13,30.00,8,1,12,0.00
2013-6-1,86.5,74.9,66.0,73.0,67.0,62.0,96,77,57,30.04,29.92,10,2,15,0.60
2013-6-2,77.4,70.6,64.7,72.0,68.2,64.0,98,92,76,29.95,29.86,8,0,12,0.11
2013-6-3,81.1,70.6,63.0,70.0,63.9,59.0,99,81,57,29.99,29.88,2,0,6,0.00
2013-6-4,84.8,70.6,58.1,65.0,61.2,57.0,98,74,47,30.02,29.95,7,0,12,0.00
2013-6-5,79.7,69.3,63.7,71.0,64.9,60.0,98,86,75,30.00,29.89,3,0,10,0.75
2013-6-6,78.0,68.1,65.4,70.0,66.4,65.0,99,94,70,29.90,29.82,3,0,6,0.00
2013-6-7,80.1,69.3,65.3,70.0,63.1,-99.9,98,87,67,29.86,0.00,3,-25,5,0.12
2013-6-8,81.6,70.2,63.1,70.0,64.1,60.0,99,83,50,30.04,29.85,5,0,10,0.00
2013-6-9,81.8,71.1,65.6,72.0,67.6,62.0,97,89,68,30.06,29.93,5,0,10,1.07
2013-6-10,84.4,73.1,65.1,69.0,65.9,64.0,97,80,52,29.98,29.88,7,2,14,0.73
2013-6-11,87.7,77.9,68.3,75.0,70.6,67.0,97,79,56,30.02,29.94,4,0,8,0.07
2013-6-12,91.3,80.8,70.8,78.0,73.0,69.0,98,78,56,30.05,29.93,7,0,7,0.00
2013-6-13,88.4,77.3,69.5,77.0,71.6,66.0,95,83,65,29.94,29.74,6,1,17,0.07
2013-6-14,85.5,72.2,60.5,66.0,61.6,56.0,94,71,43,30.00,29.86,3,0,9,0.00
2013-6-15,87.3,74.1,62.3,66.0,61.9,57.0,88,67,45,30.10,30.00,7,0,8,0.00
2013-6-16,88.3,74.2,65.9,74.0,66.3,61.0,97,78,52,30.10,29.96,6,0,10,0.32
2013-6-17,85.2,71.3,66.7,74.0,68.6,66.0,98,92,65,30.03,29.90,6,0,9,0.13
2013-6-18,77.6,70.3,65.9,73.3,68.4,64.0,98,94,83,29.93,29.85,5,1,17,0.66
2013-6-19,85.6,72.4,63.2,73.0,66.4,63.0,99,83,52,30.05,29.93,2,0,4,0.00
2013-6-20,88.3,73.7,64.9,70.0,66.5,64.0,98,80,49,30.18,30.05,5,0,11,0.04
2013-6-21,85.6,72.4,64.2,71.0,66.2,63.0,99,82,54,30.22,30.13,2,0,7,0.00
2013-6-22,87.8,74.1,64.8,70.0,65.3,63.0,96,76,44,30.21,30.07,3,0,4,0.00
2013-6-23,88.9,75.5,65.7,72.0,67.2,62.0,92,76,50,30.16,30.06,4,0,7,0.00
2013-6-24,87.2,74.7,67.1,73.0,69.5,66.0,98,84,59,30.19,30.07,3,0,6,0.00
2013-6-25,87.8,76.7,68.6,73.0,70.5,67.0,98,82,59,30.13,29.98,4,0,7,0.00
2013-6-26,89.0,78.8,68.9,75.0,71.3,68.0,97,79,57,30.03,29.87,7,1,12,0.00
2013-6-27,87.9,75.8,70.9,77.0,71.4,66.0,98,86,69,29.92,29.78,7,1,13,0.70
2013-6-28,87.2,74.6,66.8,78.0,70.9,66.0,99,89,66,29.83,29.66,6,0,15,0.10
2013-6-29,84.9,73.7,66.4,73.0,66.3,62.0,99,80,49,29.70,29.65,5,0,9,0.48
2013-6-30,85.2,73.4,62.4,69.0,64.0,59.0,96,74,42,29.78,29.66,4,0,8,0.00
2013-7-1,79.3,69.8,61.8,72.0,66.4,60.0,97,89,72,29.89,29.75,5,0,10,0.17
2013-7-2,83.7,71.9,63.8,71.0,66.8,63.0,99,85,58,30.03,29.88,3,0,12,0.01
2013-7-3,75.1,69.5,66.5,72.0,67.5,65.0,98,93,86,30.12,30.02,1,0,8,0.03
2013-7-4,72.6,68.3,66.0,71.0,67.3,65.0,98,96,88,30.12,30.04,2,0,8,0.68
2013-7-5,71.9,69.2,66.5,70.0,68.4,66.0,99,97,93,30.15,30.07,2,0,7,0.28
2013-7-6,69.4,68.1,67.0,69.0,67.7,67.0,99,98,98,30.14,30.08,1,0,5,2.08
2013-7-7,77.8,71.2,67.4,75.0,70.4,67.0,100,97,87,30.15,30.07,2,0,11,1.55
2013-7-8,85.3,74.0,68.2,77.0,71.7,68.0,100,93,70,30.18,30.08,4,0,6,0.01
2013-7-9,87.2,77.3,69.8,77.0,72.7,69.0,99,87,61,30.15,30.03,2,0,6,0.00
2013-7-10,87.0,77.6,69.6,78.0,73.4,68.0,99,87,69,30.07,29.90,5,0,9,0.11
2013-7-11,84.7,72.9,67.3,76.0,70.7,67.0,99,93,73,29.97,29.86,3,0,4,0.28
2013-7-12,83.8,73.4,66.7,74.0,68.6,62.0,99,86,60,29.96,29.88,3,0,5,0.01
2013-7-13,84.5,72.2,61.5,72.0,66.6,60.0,98,83,63,30.05,29.93,6,0,10,0.00
2013-7-14,81.8,73.4,68.6,76.0,70.5,67.0,98,90,75,30.16,30.03,5,0,9,0.48
2013-7-15,87.8,75.8,70.2,74.0,70.1,68.0,96,83,58,30.27,30.16,6,1,11,0.02
2013-7-16,89.6,77.9,69.7,77.0,71.6,69.0,97,82,59,30.30,30.21,1,0,7,0.00
2013-7-17,91.5,77.8,69.6,79.0,72.2,69.0,99,84,62,30.27,30.13,2,0,9,0.00
2013-7-18,91.0,78.2,69.4,75.0,71.2,68.0,97,81,51,30.18,30.03,0,0,3,0.01
2013-7-19,91.4,78.6,69.8,76.0,71.2,68.0,98,80,50,30.09,29.94,6,0,12,0.15
2013-7-20,88.3,76.9,69.4,76.0,71.8,68.0,99,85,57,30.01,29.88,3,0,7,0.00
2013-7-21,86.2,74.9,69.3,76.0,71.2,69.0,98,89,69,29.99,29.91,2,0,11,0.00
2013-7-22,81.7,73.3,68.0,74.0,69.8,67.0,97,89,71,29.98,29.85,16,1,16,0.00
2013-7-23,77.1,73.4,69.3,74.0,70.9,68.0,98,92,83,29.93,29.82,7,1,12,0.76
2013-7-24,82.5,73.3,67.3,75.0,71.0,67.0,99,93,76,29.89,29.82,0,0,6,0.02
2013-7-25,84.4,72.9,64.0,71.0,67.1,63.0,98,83,58,30.02,29.88,2,0,5,0.00
2013-7-26,86.6,73.0,62.2,73.0,66.5,61.0,97,81,54,30.05,29.97,8,0,8,0.00
2013-7-27,81.6,73.4,66.8,72.0,67.6,65.0,96,83,59,29.98,29.87,5,0,8,0.01
2013-7-28,81.7,72.1,65.4,71.0,67.3,62.0,98,85,64,30.05,29.91,2,0,5,0.03
2013-7-29,78.8,66.5,58.6,65.0,60.8,57.0,97,83,61,30.18,30.05,0,0,2,0.00
2013-7-30,88.8,73.0,61.0,71.0,65.3,60.0,98,79,49,30.22,30.09,3,0,6,0.04
2013-7-31,75.9,70.0,65.2,73.0,68.7,64.0,99,96,89,30.13,29.95,4,0,11,0.87
2013-8-1,83.0,73.3,68.6,73.0,69.7,66.0,99,89,66,29.98,29.93,3,0,6,0.01
2013-8-2,85.5,73.1,65.2,71.0,66.9,62.0,99,82,56,30.03,29.95,1,0,3,0.00
2013-8-3,79.7,72.5,66.2,73.0,68.5,63.0,96,87,76,30.05,29.98,1,0,5,0.00
2013-8-4,86.7,75.2,67.9,75.0,69.5,63.0,98,84,60,30.06,29.99,2,0,7,0.00
2013-8-5,85.1,72.4,64.2,71.0,65.4,61.0,94,80,53,30.06,29.96,0,0,4,0.00
2013-8-6,83.7,74.0,67.0,75.0,70.1,65.0,98,88,71,29.99,29.93,3,0,8,0.36
2013-8-7,82.7,73.0,70.1,77.0,71.9,70.0,99,96,80,30.00,29.93,3,0,8,0.11
2013-8-8,84.9,72.9,67.8,79.0,71.3,68.0,100,95,79,30.03,29.95,2,0,6,1.52
2013-8-9,88.5,76.6,67.7,79.0,72.9,67.0,100,89,66,30.05,29.97,6,0,8,0.00
2013-8-10,85.2,75.5,70.7,78.0,73.7,70.0,99,94,73,30.10,30.04,5,0,7,0.33
2013-8-11,86.1,75.1,70.0,77.0,72.5,70.0,99,92,68,30.13,30.05,2,0,8,0.10
2013-8-12,86.1,75.3,68.9,79.0,72.9,68.0,100,92,73,30.09,29.95,5,0,8,0.62
2013-8-13,83.0,74.2,70.0,75.0,71.5,68.0,99,92,70,29.98,29.88,7,0,12,0.05
2013-8-14,79.2,70.5,62.7,69.0,66.1,59.0,97,86,65,30.02,29.91,1,0,5,0.00
2013-8-15,77.3,68.0,61.4,67.0,60.9,56.0,89,78,65,30.06,30.00,3,0,9,0.00
2013-8-16,69.8,66.5,64.1,64.0,61.1,56.0,92,83,70,30.09,30.02,2,0,8,0.00
2013-8-17,71.1,66.2,63.6,65.0,62.8,61.0,97,89,79,30.12,30.06,5,0,6,0.06
2013-8-18,74.9,68.3,63.7,70.0,66.2,63.0,98,93,78,30.16,30.08,10,0,10,0.05
2013-8-19,79.1,70.2,66.5,74.0,68.7,66.0,98,95,81,30.13,30.03,0,0,5,0.11
2013-8-20,82.0,73.1,68.6,75.0,70.4,68.0,98,91,75,30.15,30.06,3,0,9,0.07
2013-8-21,81.5,73.4,70.6,76.0,71.6,70.0,98,94,80,30.18,30.09,7,0,7,0.06
2013-8-22,83.8,73.6,67.4,77.0,71.1,67.0,100,92,70,30.16,30.04,1,0,6,0.02
2013-8-23,87.6,75.2,68.0,76.0,71.1,67.0,99,88,64,30.08,29.97,1,0,4,0.01
2013-8-24,86.7,74.7,66.0,74.0,69.4,65.0,98,84,63,30.21,30.04,2,0,8,0.01
2013-8-25,85.3,74.8,67.6,69.0,64.2,60.0,89,71,46,30.32,30.21,7,1,13,0.00
2013-8-26,83.5,70.7,61.1,68.0,63.5,58.0,97,79,57,30.30,30.14,1,0,3,0.00
2013-8-27,84.8,72.3,63.1,72.0,66.8,62.0,98,84,60,30.16,30.04,3,0,5,0.00
2013-8-28,87.3,75.4,66.3,75.0,70.4,66.0,98,85,63,30.06,29.98,1,0,4,0.00
2013-8-29,88.4,77.2,68.3,77.0,72.2,68.0,98,85,64,30.03,29.93,4,0,8,0.00
2013-8-30,88.0,75.3,70.9,78.0,72.9,70.0,98,93,69,29.98,29.90,2,0,5,0.08
2013-8-31,90.2,76.9,69.3,79.0,72.8,69.0,99,88,56,29.95,29.83,3,0,9,0.57
2013-9-1,84.9,74.0,69.8,77.0,71.4,69.0,99,92,74,29.91,29.83,6,0,13,1.11
2013-9-2,82.1,73.9,68.6,73.0,70.2,68.0,97,88,68,29.96,29.85,4,0,10,0.00
2013-9-3,84.5,75.4,69.0,75.0,70.2,65.0,98,85,62,29.99,29.86,1,0,9,0.00
2013-9-4,83.2,72.0,62.3,71.0,65.2,61.0,98,81,54,30.11,29.98,1,0,4,0.00
2013-9-5,83.7,71.3,61.7,70.0,65.6,61.0,99,84,57,30.15,30.07,1,0,4,0.00
2013-9-6,86.5,72.9,63.1,72.0,66.2,62.0,96,81,60,30.15,30.04,4,0,6,0.00
2013-9-7,85.3,73.6,63.8,72.0,66.7,62.0,97,80,54,30.10,29.99,3,0,7,0.00
2013-9-8,85.2,74.4,65.8,74.0,69.1,65.0,98,84,64,30.01,29.93,2,0,7,0.00
2013-9-9,87.6,76.2,69.3,75.0,71.4,68.0,97,86,62,30.09,29.98,4,0,8,0.00
2013-9-10,90.1,77.2,69.8,75.0,69.6,66.0,95,79,50,30.18,30.08,0,0,2,0.00
2013-9-11,86.5,75.2,67.2,74.0,69.3,66.0,98,83,58,30.20,30.08,0,0,1,0.00
2013-9-12,87.3,74.6,68.0,74.0,69.6,66.0,98,85,60,30.09,29.91,3,0,8,0.01
2013-9-13,80.0,69.9,60.5,68.0,62.0,52.0,98,78,52,29.95,29.87,5,0,8,0.08
2013-9-14,76.2,62.6,50.4,60.0,54.2,48.0,95,75,50,30.07,29.94,5,0,8,0.00
2013-9-15,80.7,68.3,58.5,66.0,60.9,55.0,90,78,54,30.14,30.07,6,1,14,0.00
2013-9-16,82.5,69.3,59.7,68.0,62.5,59.0,99,81,50,30.16,30.09,3,0,6,0.00
2013-9-17,79.5,70.4,63.9,68.0,63.7,60.0,90,79,65,30.18,30.10,9,1,15,0.00
2013-9-18,77.3,68.7,63.0,67.0,61.6,57.0,88,78,66,30.20,30.10,6,1,13,0.00
2013-9-19,81.2,70.0,60.6,69.0,63.8,59.0,96,81,61,30.18,30.04,5,1,7,0.00
2013-9-20,84.8,72.2,62.4,67.0,64.2,61.0,96,78,50,30.06,29.86,6,1,10,0.00
2013-9-21,73.3,66.8,57.2,69.0,64.9,56.0,98,94,77,29.87,29.72,7,2,13,1.59
2013-9-22,75.1,61.7,52.3,60.0,55.8,52.0,98,83,54,29.91,29.82,6,0,11,0.01
2013-9-23,78.0,64.8,54.1,63.0,58.0,53.0,98,80,55,30.00,29.90,4,1,11,0.00
2013-9-24,67.1,64.7,61.0,64.0,61.3,58.0,94,89,78,30.00,29.88,6,2,8,0.00
2013-9-25,66.2,64.4,63.1,65.0,63.6,62.0,98,97,91,29.88,29.82,3,0,7,0.26
2013-9-26,77.3,67.1,61.7,68.0,63.7,60.0,98,90,67,30.01,29.87,2,0,5,0.00
2013-9-27,77.2,65.5,57.2,63.0,59.4,56.0,99,82,54,30.14,30.01,7,0,8,0.01
2013-9-28,76.7,65.6,57.5,62.0,58.1,55.0,93,78,55,30.21,30.09,4,1,9,0.00
2013-9-29,73.3,63.2,53.9,61.0,56.3,52.0,94,79,55,30.14,30.01,7,1,9,0.00
2013-9-30,74.3,63.5,55.4,61.0,57.6,54.0,97,82,55,30.08,29.99,6,1,10,0.00
2013-10-1,79.1,66.5,57.8,68.0,62.1,56.0,95,86,64,30.14,30.04,4,0,7,0.00
2013-10-2,81.0,69.2,61.5,69.0,64.9,61.0,98,87,63,30.15,30.05,2,0,4,0.00
2013-10-3,81.8,70.8,64.4,67.0,63.7,61.0,98,80,54,30.11,30.03,6,1,9,0.00
2013-10-4,80.6,69.2,61.2,70.0,64.6,60.0,98,86,69,30.14,30.07,3,0,5,0.00
2013-10-5,84.0,71.8,63.1,71.0,65.5,62.0,98,82,59,30.10,29.98,6,1,9,0.00
2013-10-6,79.3,70.4,55.3,70.0,65.1,54.0,95,83,71,29.98,29.80,10,2,17,0.27
2013-10-7,68.0,57.9,52.2,55.0,51.8,49.0,98,82,55,30.06,29.88,5,1,10,0.07
2013-10-8,73.6,63.1,50.8,58.9,53.2,46.0,88,71,54,30.13,30.04,10,1,11,0.00
2013-10-9,76.0,63.6,56.1,61.0,56.5,53.0,92,79,56,30.19,30.10,4,0,7,0.00
2013-10-10,78.0,64.7,57.2,64.0,58.9,55.0,98,83,56,30.14,30.03,3,0,6,0.00
2013-10-11,77.1,62.3,53.5,60.0,55.8,52.0,98,81,51,30.09,30.00,3,0,7,0.00
2013-10-12,77.7,62.9,52.8,62.0,56.5,52.0,98,81,51,30.12,30.03,4,0,6,0.00
2013-10-13,78.9,64.6,54.9,64.0,58.6,54.0,98,82,53,30.22,30.11,3,0,6,0.01
2013-10-14,78.7,65.9,56.9,65.0,60.2,56.0,97,83,60,30.22,30.09,5,0,6,0.00
2013-10-15,68.0,63.7,60.3,61.0,59.1,58.0,91,85,73,30.15,30.04,5,1,10,0.00
2013-10-16,66.9,62.2,58.1,63.0,59.7,56.0,97,91,81,30.05,29.94,5,0,6,0.03
2013-10-17,66.4,61.5,50.7,65.0,60.0,49.0,98,94,87,30.00,29.88,6,1,11,0.15
2013-10-18,65.3,54.3,48.5,54.0,50.4,48.0,98,88,60,30.08,29.97,3,0,7,0.00
2013-10-19,65.8,54.6,45.5,56.0,51.1,43.0,97,88,66,30.04,29.93,4,0,9,0.00
2013-10-20,64.3,48.4,38.3,46.0,41.3,37.0,98,79,41,30.12,30.03,4,0,4,0.00
2013-10-21,68.1,52.7,40.6,53.0,45.9,39.0,98,80,48,30.14,30.02,4,0,6,0.00
2013-10-22,64.0,55.5,49.5,55.0,51.5,48.0,96,86,71,30.04,29.88,3,0,7,0.00
2013-10-23,52.6,46.6,37.7,50.0,40.7,35.0,96,81,54,30.12,29.86,7,1,13,0.00
2013-10-24,56.2,45.2,36.8,45.0,40.1,35.0,96,83,59,30.30,30.12,5,0,9,0.00
2013-10-25,51.1,39.4,29.1,35.0,29.0,25.0,86,69,38,30.47,30.31,3,0,9,0.00
2013-10-26,58.9,43.1,29.9,37.0,32.3,28.0,96,70,35,30.39,30.18,3,0,9,0.00
2013-10-27,60.1,52.9,46.5,54.0,47.2,37.0,95,81,61,30.18,30.11,4,0,7,0.01
2013-10-28,59.7,54.8,50.0,57.0,53.3,49.0,97,94,90,30.28,30.13,2,0,6,0.00
2013-10-29,69.0,58.9,51.8,59.0,55.5,51.0,99,89,69,30.33,30.23,6,0,7,0.00
2013-10-30,76.6,64.5,55.3,61.0,56.7,54.0,97,78,51,30.28,30.12,4,0,9,0.00
2013-10-31,70.8,66.6,62.3,64.6,60.2,53.0,94,80,67,30.13,29.72,13,6,23,0.10
2013-11-1,69.5,60.9,50.4,64.6,56.0,44.0,98,85,55,29.84,29.69,16,2,28,0.36
2013-11-2,63.2,52.2,44.8,49.0,43.8,38.0,97,75,44,30.13,29.83,6,1,14,0.00
2013-11-3,59.3,48.1,40.2,43.0,39.3,36.0,94,73,45,30.31,30.12,4,1,9,0.00
2013-11-4,63.5,51.9,42.0,41.0,38.3,36.0,86,62,43,30.42,30.31,11,3,16,0.00
2013-11-5,63.0,54.5,46.0,43.0,37.9,33.0,67,54,41,30.43,30.30,7,2,15,0.00
2013-11-6,69.3,62.2,54.6,58.3,54.7,30.0,92,77,35,30.29,30.07,11,3,19,0.00
2013-11-7,63.5,50.9,39.9,59.0,44.7,30.0,97,81,48,30.29,30.02,10,2,15,0.34
2013-11-8,56.8,43.9,33.1,33.0,29.0,24.0,89,59,33,30.41,30.28,6,1,8,0.00
2013-11-9,54.9,46.7,38.3,38.0,31.3,24.0,71,56,42,30.36,30.25,7,1,13,0.00
2013-11-10,67.0,53.0,43.9,46.0,38.3,33.0,83,60,33,30.34,30.26,4,1,12,0.00
2013-11-11,66.1,52.1,40.7,33.0,29.0,26.0,61,43,27,30.32,30.18,4,0,9,0.00
2013-11-12,52.1,40.3,28.4,41.9,27.8,15.0,82,62,37,30.55,30.16,14,3,23,0.00
2013-11-13,46.6,35.1,24.0,19.8,17.7,15.5,79,51,31,30.68,30.51,6,1,13,0.00
2013-11-14,56.7,41.1,27.3,25.0,19.1,16.0,73,45,23,30.52,30.31,5,1,9,0.00
2013-11-15,54.1,47.5,43.2,46.0,37.5,17.0,96,71,34,30.31,30.14,5,1,9,0.01
2013-11-16,61.1,54.2,47.0,56.0,52.1,46.0,98,93,82,30.21,30.09,9,2,15,0.00
2013-11-17,67.6,62.8,58.9,66.0,60.7,56.0,97,93,88,30.10,29.85,12,4,21,0.02
2013-11-18,67.6,55.9,45.3,66.0,43.3,34.0,95,65,37,30.15,29.89,10,2,18,0.09
2013-11-19,55.6,44.7,36.7,33.0,27.2,21.0,73,52,28,30.22,30.13,13,2,15,0.00
2013-11-20,57.1,47.7,37.0,36.0,31.3,27.0,71,54,38,30.31,30.19,13,3,19,0.00
2013-11-21,59.9,52.8,48.2,51.0,44.7,36.0,91,74,62,30.35,30.26,11,3,12,0.00
2013-11-22,58.8,55.0,51.3,57.0,54.0,51.0,98,96,91,30.32,30.20,5,1,11,0.08
2013-11-23,51.1,43.1,31.1,50.0,37.6,20.0,97,81,60,30.40,30.20,10,2,17,0.00
2013-11-24,39.4,29.2,21.1,21.0,13.7,9.0,78,55,34,30.58,30.40,9,2,14,0.00
2013-11-25,39.2,34.6,26.2,33.0,20.2,10.0,95,59,34,30.51,30.22,9,2,14,0.46
2013-11-26,42.9,37.8,34.0,42.4,37.0,32.7,98,97,95,30.21,29.80,11,2,15,2.12
2013-11-27,35.2,28.9,21.0,34.4,23.6,14.9,97,81,65,30.36,29.85,13,4,23,0.01
2013-11-28,42.5,28.7,17.4,24.9,17.9,13.5,91,66,37,30.54,30.36,3,0,6,0.00
2013-11-29,52.7,35.9,26.0,27.0,23.7,19.0,91,64,35,30.61,30.51,3,0,5,0.00
2013-11-30,56.4,43.7,37.3,29.0,26.8,25.0,65,53,31,30.55,30.32,9,2,11,0.00
2013-12-1,51.9,43.3,33.7,38.0,32.4,26.0,80,66,56,30.33,30.04,4,0,6,0.00
2013-12-2,48.0,45.8,42.7,47.0,44.0,37.0,98,94,67,30.03,29.82,3,0,7,0.21
2013-12-3,54.0,50.4,47.0,54.0,50.0,47.0,99,98,98,29.88,29.82,5,1,6,0.00
2013-12-4,69.8,61.5,53.7,62.0,58.7,54.0,99,91,74,29.97,29.87,11,3,19,0.00
2013-12-5,71.9,66.5,60.8,66.0,63.9,59.0,96,91,80,30.01,29.90,7,3,15,0.10
2013-12-6,59.1,45.4,35.7,57.0,44.7,35.0,98,97,94,30.22,29.89,8,2,12,0.71
2013-12-7,36.9,34.7,32.3,35.0,33.5,31.0,97,95,91,30.43,30.22,10,2,14,0.01
2013-12-8,48.0,42.9,34.1,48.0,42.5,33.0,99,98,97,30.35,30.10,8,2,13,0.67
2013-12-9,50.4,46.0,37.8,48.2,45.0,37.0,99,96,91,30.18,30.04,5,1,10,0.34
2013-12-10,38.8,33.5,26.5,37.0,31.1,25.0,98,91,72,30.41,30.02,6,2,14,0.23
2013-12-11,49.2,34.3,22.4,32.0,26.9,21.0,97,77,47,30.51,30.41,4,1,7,0.00
2013-12-12,40.8,30.8,23.2,27.0,20.7,15.0,89,68,35,30.57,30.46,8,1,11,0.00
2013-12-13,44.2,34.8,23.6,27.0,21.6,16.0,84,60,44,30.48,30.19,6,1,13,0.00
2013-12-14,51.4,46.6,39.7,51.0,42.1,25.0,97,86,49,30.21,29.82,8,2,19,0.72
2013-12-15,39.4,32.4,30.0,38.0,30.0,27.7,95,91,86,30.27,29.93,10,2,16,0.01
2013-12-16,50.6,34.6,27.6,36.0,29.7,26.0,96,84,57,30.32,30.20,5,1,12,0.00
2013-12-17,57.6,45.2,35.3,38.0,33.3,27.0,81,64,48,30.27,30.09,11,2,15,0.00
2013-12-18,49.2,38.2,27.8,27.0,22.1,17.0,84,56,29,30.39,30.27,4,1,8,0.00
2013-12-19,60.4,47.2,36.5,31.0,23.8,19.0,54,41,24,30.33,30.17,7,1,13,0.00
2013-12-20,62.1,54.8,47.1,54.0,42.3,25.0,85,64,41,30.18,30.05,9,2,13,0.00
2013-12-21,70.0,64.2,57.7,65.3,61.0,54.0,96,89,84,30.05,29.80,21,6,28,0.04
2013-12-22,69.5,57.1,52.0,66.0,55.0,51.0,97,93,82,30.06,29.77,14,3,31,1.42
2013-12-23,51.9,39.3,29.8,51.0,36.9,27.0,97,91,82,30.39,30.04,8,2,14,0.04
2013-12-24,34.6,28.6,23.1,27.0,21.3,15.0,89,75,56,30.54,30.38,7,2,12,0.00
2013-12-25,45.7,32.4,20.4,27.0,21.1,15.0,81,65,45,30.50,30.38,5,1,9,0.00
2013-12-26,48.0,36.6,28.9,32.0,26.8,23.0,83,69,50,30.43,30.34,4,1,8,0.00
2013-12-27,52.8,38.2,27.8,30.0,25.3,23.0,89,63,38,30.51,30.39,6,0,7,0.00
2013-12-28,43.1,38.6,36.5,37.0,30.1,22.0,96,73,53,30.43,30.01,5,1,10,0.84
2013-12-29,45.7,40.9,37.6,43.0,39.7,37.0,98,95,88,30.09,29.92,4,1,10,0.25
2013-12-30,41.5,36.3,33.8,40.0,34.2,32.0,97,92,84,30.27,30.08,4,1,11,0.00
2013-12-31,41.2,33.0,28.1,32.0,27.5,25.0,95,81,55,30.50,30.27,5,1,9,0.00
2014-1-1,48.8,37.3,27.6,36.0,28.8,24.0,87,73,50,30.39,30.12,8,1,10,0.00
2014-1-2,46.1,33.0,19.1,45.0,29.9,14.0,98,88,78,30.25,29.84,13,4,24,0.31